Location: Drocourt
(49.0571°N, 1.7669°E)
Time: 15:52:53
(UTC+00:00)

Vanguard 3 - Pass Details

Date: 15 April 2024
Orbit: 509 x 3233 km, 33.3° (Epoch: 23 May)

Event Time Altitude Azimuth Distance (km) Brightness Sun altitude
Rises 05:18:34 0° 221° (SW) 5,403 10.9 2.0°
Reaches altitude 10° 05:24:19 10° 204° (SSW) 3,780 10.2 2.9°
Maximum altitude 05:29:22 16° 171° (S) 2,766 9.9 3.7°
Drops below altitude 10° 05:33:15 10° 135° (SE) 2,752 10.4 4.3°
Sets 05:36:26 0° 113° (ESE) 3,341 11.4 4.8°
